Time,TemperatureF,DewpointF,PressureIn,WindDirection,WindDirectionDegrees,WindSpeedMPH,WindSpeedGustMPH,Humidity,HourlyPrecipIn,Conditions,Clouds,dailyrainin,SoftwareType,DateUTC
2013-02-23 00:00:00,49.9,33.5,30.04,NE,35,1.0,14.0,53,0.00,,SKC,0.00,VWS V14.01,2013-02-23 06:00:00,
2013-02-23 00:05:00,49.7,33.8,30.03,North,360,3.0,5.0,54,0.00,,SKC,0.00,VWS V14.01,2013-02-23 06:05:00,
2013-02-23 00:10:00,49.6,33.7,30.03,NNE,27,3.0,9.0,54,0.00,,SKC,0.00,VWS V14.01,2013-02-23 06:10:00,
2013-02-23 00:15:00,49.4,33.5,30.03,NNE,22,4.0,9.0,54,0.00,,SKC,0.00,VWS V14.01,2013-02-23 06:15:00,
2013-02-23 00:20:00,49.3,33.4,30.02,North,5,0.0,9.0,54,0.00,,SKC,0.00,VWS V14.01,2013-02-23 06:20:00,
2013-02-23 00:25:00,49.2,33.7,30.02,NNE,28,5.0,10.0,55,0.00,,SKC,0.00,VWS V14.01,2013-02-23 06:25:00,
2013-02-23 00:30:00,49.0,33.5,30.02,NE,34,3.0,10.0,55,0.00,,SKC,0.00,VWS V14.01,2013-02-23 06:30:00,
2013-02-23 00:35:00,48.8,33.4,30.02,NNE,13,1.0,12.0,55,0.00,,SKC,0.00,VWS V14.01,2013-02-23 06:35:00,
2013-02-23 00:40:00,48.7,32.8,30.02,NNE,30,5.0,12.0,54,0.00,,SKC,0.00,VWS V14.01,2013-02-23 06:40:00,
2013-02-23 00:45:00,48.5,32.6,30.01,North,360,7.0,13.0,54,0.00,,SKC,0.00,VWS V14.01,2013-02-23 06:45:00,
2013-02-23 00:50:00,48.4,32.5,30.02,NNE,17,5.0,13.0,54,0.00,,SKC,0.00,VWS V14.01,2013-02-23 06:50:00,
2013-02-23 00:55:00,48.3,32.4,30.02,North,11,5.0,13.0,54,0.00,,SKC,0.00,VWS V14.01,2013-02-23 06:55:00,
2013-02-23 01:00:00,48.3,32.4,30.02,NNE,32,4.0,13.0,54,0.00,,SKC,0.00,VWS V14.01,2013-02-23 07:00:00,
2013-02-23 01:05:00,48.1,32.3,30.02,NNW,336,2.0,6.0,54,0.00,,SKC,0.00,VWS V14.01,2013-02-23 07:05:00,
2013-02-23 01:10:00,48.1,32.3,30.03,NE,39,5.0,6.0,54,0.00,,SKC,0.00,VWS V14.01,2013-02-23 07:10:00,
2013-02-23 01:15:00,47.9,32.1,30.03,NNE,21,6.0,7.0,54,0.00,,SKC,0.00,VWS V14.01,2013-02-23 07:15:00,
2013-02-23 01:20:00,47.9,32.1,30.03,NNE,15,4.0,7.0,54,0.00,,SKC,0.00,VWS V14.01,2013-02-23 07:20:00,
2013-02-23 01:25:00,47.7,31.9,30.03,NNE,13,0.0,11.0,54,0.00,,SKC,0.00,VWS V14.01,2013-02-23 07:25:00,
2013-02-23 01:30:00,47.7,31.9,30.04,North,360,6.0,11.0,54,0.00,,SKC,0.00,VWS V14.01,2013-02-23 07:30:00,
2013-02-23 01:35:00,47.6,31.8,30.04,North,360,0.0,4.0,54,0.00,,SKC,0.00,VWS V14.01,2013-02-23 07:35:00,
2013-02-23 01:40:00,47.5,31.7,30.04,North,5,0.0,5.0,54,0.00,,SKC,0.00,VWS V14.01,2013-02-23 07:40:00,
2013-02-23 01:45:00,47.5,31.7,30.04,North,5,1.0,5.0,54,0.00,,SKC,0.00,VWS V14.01,2013-02-23 07:45:00,
2013-02-23 01:50:00,47.4,31.6,30.04,North,5,0.0,5.0,54,0.00,,SKC,0.00,VWS V14.01,2013-02-23 07:50:00,
2013-02-23 01:55:00,47.3,32.0,30.04,North,5,0.0,6.0,55,0.00,,SKC,0.00,VWS V14.01,2013-02-23 07:55:00,
2013-02-23 02:00:00,47.3,32.0,30.05,North,5,2.0,6.0,55,0.00,,SKC,0.00,VWS V14.01,2013-02-23 08:00:00,
2013-02-23 02:05:00,47.2,31.9,30.05,North,5,0.0,4.0,55,0.00,,SKC,0.00,VWS V14.01,2013-02-23 08:05:00,
2013-02-23 02:10:00,47.1,31.8,30.05,North,5,0.0,4.0,55,0.00,,SKC,0.00,VWS V14.01,2013-02-23 08:10:00,
2013-02-23 02:15:00,47.0,31.7,30.05,North,5,2.0,4.0,55,0.00,,SKC,0.00,VWS V14.01,2013-02-23 08:15:00,
2013-02-23 02:20:00,47.0,31.7,30.05,North,5,0.0,4.0,55,0.00,,SKC,0.00,VWS V14.01,2013-02-23 08:20:00,
2013-02-23 02:25:00,46.9,31.6,30.05,North,9,0.0,6.0,55,0.00,,SKC,0.00,VWS V14.01,2013-02-23 08:25:00,
2013-02-23 02:30:00,46.9,31.6,30.05,North,5,0.0,6.0,55,0.00,,SKC,0.00,VWS V14.01,2013-02-23 08:30:00,
2013-02-23 02:35:00,46.7,31.4,30.05,North,11,2.0,7.0,55,0.00,,SKC,0.00,VWS V14.01,2013-02-23 08:35:00,
2013-02-23 02:40:00,46.7,31.4,30.05,North,9,2.0,7.0,55,0.00,,SKC,0.00,VWS V14.01,2013-02-23 08:40:00,
2013-02-23 02:45:00,46.6,31.3,30.04,North,360,0.0,8.0,55,0.00,,SKC,0.00,VWS V14.01,2013-02-23 08:45:00,
2013-02-23 02:50:00,46.5,31.2,30.04,North,360,5.0,8.0,55,0.00,,SKC,0.00,VWS V14.01,2013-02-23 08:50:00,
2013-02-23 02:55:00,46.4,31.1,30.04,North,5,2.0,9.0,55,0.00,,SKC,0.00,VWS V14.01,2013-02-23 08:55:00,
2013-02-23 03:00:00,46.3,31.0,30.05,North,5,1.0,9.0,55,0.00,,SKC,0.00,VWS V14.01,2013-02-23 09:00:00,
2013-02-23 03:05:00,46.2,30.9,30.04,North,360,3.0,6.0,55,0.00,,SKC,0.00,VWS V14.01,2013-02-23 09:05:00,
2013-02-23 03:10:00,46.2,30.9,30.05,North,360,2.0,6.0,55,0.00,,SKC,0.00,VWS V14.01,2013-02-23 09:10:00,
2013-02-23 03:15:00,46.1,30.9,30.04,NNE,13,3.0,7.0,55,0.00,,SKC,0.00,VWS V14.01,2013-02-23 09:15:00,
2013-02-23 03:20:00,46.0,31.2,30.04,North,360,3.0,7.0,56,0.00,,SKC,0.00,VWS V14.01,2013-02-23 09:20:00,
2013-02-23 03:25:00,45.9,31.1,30.04,North,360,3.0,7.0,56,0.00,,SKC,0.00,VWS V14.01,2013-02-23 09:25:00,
2013-02-23 03:30:00,45.8,31.0,30.04,North,355,6.0,7.0,56,0.00,,SKC,0.00,VWS V14.01,2013-02-23 09:30:00,
2013-02-23 03:35:00,45.6,30.8,30.04,North,360,4.0,5.0,56,0.00,,SKC,0.00,VWS V14.01,2013-02-23 09:35:00,
2013-02-23 03:40:00,45.6,30.8,30.04,North,11,4.0,10.0,56,0.00,,SKC,0.00,VWS V14.01,2013-02-23 09:40:00,
2013-02-23 03:45:00,45.5,30.7,30.03,North,5,1.0,10.0,56,0.00,,SKC,0.00,VWS V14.01,2013-02-23 09:45:00,
2013-02-23 03:50:00,45.3,30.5,30.03,North,11,6.0,10.0,56,0.00,,SKC,0.00,VWS V14.01,2013-02-23 09:50:00,
2013-02-23 03:55:00,45.3,30.5,30.03,NNE,17,2.0,10.0,56,0.00,,SKC,0.00,VWS V14.01,2013-02-23 09:55:00,
2013-02-23 04:00:00,45.2,30.5,30.03,NNE,12,4.0,10.0,56,0.00,,SKC,0.00,VWS V14.01,2013-02-23 10:00:00,
2013-02-23 04:05:00,45.1,30.4,30.03,NNE,17,1.0,5.0,56,0.00,,SKC,0.00,VWS V14.01,2013-02-23 10:05:00,
2013-02-23 04:10:00,45.0,30.3,30.03,NNE,17,0.0,6.0,56,0.00,,SKC,0.00,VWS V14.01,2013-02-23 10:10:00,
2013-02-23 04:15:00,44.9,30.2,30.04,North,9,3.0,8.0,56,0.00,,SKC,0.00,VWS V14.01,2013-02-23 10:15:00,
2013-02-23 04:20:00,44.9,30.6,30.03,North,9,0.0,8.0,57,0.00,,SKC,0.00,VWS V14.01,2013-02-23 10:20:00,
2013-02-23 04:25:00,44.8,30.5,30.03,North,355,0.0,8.0,57,0.00,,SKC,0.00,VWS V14.01,2013-02-23 10:25:00,
2013-02-23 04:30:00,44.8,30.5,30.03,North,355,0.0,8.0,57,0.00,,SKC,0.00,VWS V14.01,2013-02-23 10:30:00,
2013-02-23 04:35:00,44.7,30.4,30.03,North,360,3.0,5.0,57,0.00,,SKC,0.00,VWS V14.01,2013-02-23 10:35:00,
2013-02-23 04:40:00,44.6,30.3,30.03,North,360,0.0,6.0,57,0.00,,SKC,0.00,VWS V14.01,2013-02-23 10:40:00,
2013-02-23 04:45:00,44.6,30.3,30.04,North,355,1.0,9.0,57,0.00,,SKC,0.00,VWS V14.01,2013-02-23 10:45:00,
2013-02-23 04:50:00,44.5,30.7,30.04,North,355,0.0,9.0,58,0.00,,SKC,0.00,VWS V14.01,2013-02-23 10:50:00,
2013-02-23 04:55:00,44.5,30.2,30.04,North,355,10.0,10.0,57,0.00,,SKC,0.00,VWS V14.01,2013-02-23 10:55:00,
2013-02-23 05:00:00,44.4,30.6,30.04,North,355,7.0,10.0,58,0.00,,SKC,0.00,VWS V14.01,2013-02-23 11:00:00,
2013-02-23 05:05:00,44.4,30.6,30.04,North,360,1.0,5.0,58,0.00,,SKC,0.00,VWS V14.01,2013-02-23 11:05:00,
2013-02-23 05:10:00,44.3,30.5,30.04,North,360,2.0,7.0,58,0.00,,SKC,0.00,VWS V14.01,2013-02-23 11:10:00,
2013-02-23 05:15:00,44.1,30.3,30.04,North,360,0.0,7.0,58,0.00,,SKC,0.00,VWS V14.01,2013-02-23 11:15:00,
2013-02-23 05:20:00,44.0,30.2,30.04,North,360,3.0,7.0,58,0.00,,SKC,0.00,VWS V14.01,2013-02-23 11:20:00,
2013-02-23 05:25:00,43.9,30.5,30.03,North,360,0.0,7.0,59,0.00,,SKC,0.00,VWS V14.01,2013-02-23 11:25:00,
2013-02-23 05:29:00,43.8,30.4,30.04,North,360,2.0,7.0,59,0.00,,SKC,0.00,VWS V14.01,2013-02-23 11:29:00,
2013-02-23 05:34:00,43.7,30.7,30.04,North,360,3.0,5.0,60,0.00,,SKC,0.00,VWS V14.01,2013-02-23 11:34:00,
2013-02-23 05:39:00,43.6,30.6,30.04,North,5,0.0,6.0,60,0.00,,SKC,0.00,VWS V14.01,2013-02-23 11:39:00,
2013-02-23 05:44:00,43.6,30.6,30.04,North,10,1.0,6.0,60,0.00,,SKC,0.00,VWS V14.01,2013-02-23 11:44:00,
2013-02-23 05:49:00,43.5,30.5,30.04,North,5,3.0,6.0,60,0.00,,SKC,0.00,VWS V14.01,2013-02-23 11:49:00,
2013-02-23 05:54:00,43.4,30.5,30.04,North,9,4.0,6.0,60,0.00,,SKC,0.00,VWS V14.01,2013-02-23 11:54:00,
2013-02-23 05:59:00,43.4,30.5,30.03,North,360,2.0,11.0,60,0.00,,SKC,0.00,VWS V14.01,2013-02-23 11:59:00,
2013-02-23 06:04:00,43.3,30.4,30.04,North,5,1.0,7.0,60,0.00,,SKC,0.00,VWS V14.01,2013-02-23 12:04:00,
2013-02-23 06:09:00,43.3,30.4,30.04,North,11,0.0,10.0,60,0.00,,SKC,0.00,VWS V14.01,2013-02-23 12:09:00,
2013-02-23 06:14:00,43.3,30.4,30.04,North,9,3.0,10.0,60,0.00,,SKC,0.00,VWS V14.01,2013-02-23 12:14:00,
2013-02-23 06:19:00,43.3,30.4,30.03,North,351,5.0,10.0,60,0.00,,SKC,0.00,VWS V14.01,2013-02-23 12:19:00,
2013-02-23 06:24:00,43.3,30.4,30.03,North,360,0.0,10.0,60,0.00,,SKC,0.00,VWS V14.01,2013-02-23 12:24:00,
2013-02-23 06:29:00,43.2,30.3,30.03,North,360,3.0,10.0,60,0.00,,SKC,0.00,VWS V14.01,2013-02-23 12:29:00,
2013-02-23 06:34:00,43.2,30.3,30.03,North,360,0.0,5.0,60,0.00,,SKC,0.00,VWS V14.01,2013-02-23 12:34:00,
2013-02-23 06:39:00,43.2,30.7,30.04,North,360,0.0,5.0,61,0.00,,SKC,0.00,VWS V14.01,2013-02-23 12:39:00,
2013-02-23 06:44:00,43.1,30.6,30.03,North,360,3.0,5.0,61,0.00,,SKC,0.00,VWS V14.01,2013-02-23 12:44:00,
2013-02-23 06:49:00,43.0,30.5,30.04,North,350,2.0,8.0,61,0.00,,SKC,0.00,VWS V14.01,2013-02-23 12:49:00,
2013-02-23 06:54:00,42.9,30.4,30.04,North,350,6.0,11.0,61,0.00,,SKC,0.00,VWS V14.01,2013-02-23 12:54:00,
2013-02-23 06:59:00,42.7,30.2,30.04,North,355,4.0,11.0,61,0.00,,SKC,0.00,VWS V14.01,2013-02-23 12:59:00,
2013-02-23 07:04:00,42.6,30.5,30.05,North,350,4.0,5.0,62,0.00,,SKC,0.00,VWS V14.01,2013-02-23 13:04:00,
2013-02-23 07:09:00,42.5,30.4,30.05,North,350,0.0,5.0,62,0.00,,SKC,0.00,VWS V14.01,2013-02-23 13:09:00,
2013-02-23 07:14:00,42.4,30.3,30.05,North,350,0.0,5.0,62,0.00,,SKC,0.00,VWS V14.01,2013-02-23 13:14:00,
2013-02-23 07:19:00,42.3,30.2,30.05,North,350,0.0,5.0,62,0.00,,SKC,0.00,VWS V14.01,2013-02-23 13:19:00,
2013-02-23 07:24:00,42.3,30.2,30.05,North,350,0.0,5.0,62,0.00,,SKC,0.00,VWS V14.01,2013-02-23 13:24:00,
2013-02-23 07:29:00,42.2,30.1,30.06,North,350,0.0,5.0,62,0.00,,SKC,0.00,VWS V14.01,2013-02-23 13:29:00,
2013-02-23 07:34:00,42.2,30.5,30.06,North,350,0.0,0.0,63,0.00,,SKC,0.00,VWS V14.01,2013-02-23 13:34:00,
2013-02-23 07:39:00,42.2,30.5,30.06,North,350,0.0,2.0,63,0.00,,SKC,0.00,VWS V14.01,2013-02-23 13:39:00,
2013-02-23 07:44:00,42.2,30.5,30.07,North,350,0.0,2.0,63,0.00,,SKC,0.00,VWS V14.01,2013-02-23 13:44:00,
2013-02-23 07:49:00,42.2,30.9,30.07,North,350,0.0,2.0,64,0.00,,SKC,0.00,VWS V14.01,2013-02-23 13:49:00,
2013-02-23 07:54:00,42.2,30.9,30.07,North,350,0.0,2.0,64,0.00,,SKC,0.00,VWS V14.01,2013-02-23 13:54:00,
2013-02-23 07:59:00,42.2,30.9,30.07,North,350,2.0,2.0,64,0.00,,SKC,0.00,VWS V14.01,2013-02-23 13:59:00,
2013-02-23 08:04:00,42.3,31.0,30.07,North,350,1.0,3.0,64,0.00,,SKC,0.00,VWS V14.01,2013-02-23 14:04:00,
2013-02-23 08:09:00,42.4,31.1,30.07,North,350,0.0,4.0,64,0.00,,SKC,0.00,VWS V14.01,2013-02-23 14:09:00,
2013-02-23 08:14:00,42.5,31.2,30.08,North,350,0.0,5.0,64,0.00,,SKC,0.00,VWS V14.01,2013-02-23 14:14:00,
2013-02-23 08:19:00,42.8,31.1,30.08,North,349,5.0,10.0,63,0.00,,SKC,0.00,VWS V14.01,2013-02-23 14:19:00,
2013-02-23 08:24:00,43.1,31.0,30.08,NNW,346,3.0,10.0,62,0.00,,SKC,0.00,VWS V14.01,2013-02-23 14:24:00,
2013-02-23 08:29:00,43.5,31.4,30.08,NNW,348,5.0,10.0,62,0.00,,SKC,0.00,VWS V14.01,2013-02-23 14:29:00,
2013-02-23 08:34:00,44.0,31.0,30.08,North,350,3.0,10.0,60,0.00,,SKC,0.00,VWS V14.01,2013-02-23 14:34:00,
2013-02-23 08:39:00,44.3,30.9,30.08,NNW,348,8.0,10.0,59,0.00,,SKC,0.00,VWS V14.01,2013-02-23 14:39:00,
2013-02-23 08:44:00,44.4,31.0,30.09,North,349,4.0,10.0,59,0.00,,SKC,0.00,VWS V14.01,2013-02-23 14:44:00,
2013-02-23 08:49:00,44.7,31.3,30.09,North,350,1.0,10.0,59,0.00,,SKC,0.00,VWS V14.01,2013-02-23 14:49:00,
2013-02-23 08:54:00,45.0,31.5,30.10,North,350,1.0,10.0,59,0.00,,SKC,0.00,VWS V14.01,2013-02-23 14:54:00,
2013-02-23 08:59:00,45.5,32.0,30.10,North,355,5.0,10.0,59,0.00,,SKC,0.00,VWS V14.01,2013-02-23 14:59:00,
2013-02-23 09:04:00,46.1,32.2,30.10,North,349,4.0,7.0,58,0.00,,SKC,0.00,VWS V14.01,2013-02-23 15:04:00,
2013-02-23 09:09:00,46.7,32.3,30.09,NNW,348,5.0,11.0,57,0.00,,SKC,0.00,VWS V14.01,2013-02-23 15:09:00,
2013-02-23 09:14:00,47.1,32.2,30.09,North,355,3.0,11.0,56,0.00,,SKC,0.00,VWS V14.01,2013-02-23 15:14:00,
2013-02-23 09:19:00,47.5,32.6,30.09,NNW,346,1.0,11.0,56,0.00,,SKC,0.00,VWS V14.01,2013-02-23 15:19:00,
2013-02-23 09:24:00,47.9,32.5,30.09,NNW,347,2.0,11.0,55,0.00,,SKC,0.00,VWS V14.01,2013-02-23 15:24:00,
2013-02-23 09:29:00,48.4,33.0,30.09,NNE,17,3.0,11.0,55,0.00,,SKC,0.00,VWS V14.01,2013-02-23 15:29:00,
2013-02-23 09:34:00,48.7,32.8,30.09,North,9,2.0,7.0,54,0.00,,SKC,0.00,VWS V14.01,2013-02-23 15:34:00,
2013-02-23 09:39:00,49.0,33.1,30.09,North,355,2.0,7.0,54,0.00,,SKC,0.00,VWS V14.01,2013-02-23 15:39:00,
2013-02-23 09:44:00,49.2,33.3,30.09,NW,315,7.0,8.0,54,0.00,,SKC,0.00,VWS V14.01,2013-02-23 15:44:00,
2013-02-23 09:49:00,49.4,33.5,30.10,NNE,19,5.0,11.0,54,0.00,,SKC,0.00,VWS V14.01,2013-02-23 15:49:00,
2013-02-23 09:54:00,49.6,33.7,30.09,North,355,3.0,11.0,54,0.00,,SKC,0.00,VWS V14.01,2013-02-23 15:54:00,
2013-02-23 09:59:00,50.0,34.0,30.09,North,355,2.0,13.0,54,0.00,,SKC,0.00,VWS V14.01,2013-02-23 15:59:00,
2013-02-23 10:04:00,50.6,34.1,30.09,North,355,1.0,6.0,53,0.00,,SKC,0.00,VWS V14.01,2013-02-23 16:04:00,
2013-02-23 10:09:00,51.2,34.2,30.09,NNW,348,7.0,11.0,52,0.00,,SKC,0.00,VWS V14.01,2013-02-23 16:09:00,
2013-02-23 10:14:00,51.7,34.7,30.09,NNW,340,7.0,11.0,52,0.00,,SKC,0.00,VWS V14.01,2013-02-23 16:14:00,
2013-02-23 10:19:00,52.1,35.0,30.09,NNW,342,2.0,11.0,52,0.00,,SKC,0.00,VWS V14.01,2013-02-23 16:19:00,
2013-02-23 10:24:00,52.6,35.0,30.09,NW,323,1.0,11.0,51,0.00,,SKC,0.00,VWS V14.01,2013-02-23 16:24:00,
2013-02-23 10:29:00,52.8,35.2,30.09,NNW,333,4.0,11.0,51,0.00,,SKC,0.00,VWS V14.01,2013-02-23 16:29:00,
2013-02-23 10:34:00,53.4,35.7,30.09,NW,324,3.0,6.0,51,0.00,,SKC,0.00,VWS V14.01,2013-02-23 16:34:00,
2013-02-23 10:39:00,53.8,35.6,30.08,NW,319,0.0,11.0,50,0.00,,SKC,0.00,VWS V14.01,2013-02-23 16:39:00,
2013-02-23 10:44:00,54.1,35.9,30.08,NNW,340,3.0,11.0,50,0.00,,SKC,0.00,VWS V14.01,2013-02-23 16:44:00,
2013-02-23 10:49:00,54.5,36.8,30.08,NW,325,0.0,11.0,51,0.00,,SKC,0.00,VWS V14.01,2013-02-23 16:49:00,
2013-02-23 10:54:00,55.1,36.8,30.08,NNW,330,0.0,11.0,50,0.00,,SKC,0.00,VWS V14.01,2013-02-23 16:54:00,
2013-02-23 10:59:00,55.9,37.5,30.08,North,9,4.0,11.0,50,0.00,,SKC,0.00,VWS V14.01,2013-02-23 16:59:00,
2013-02-23 11:04:00,56.7,37.8,30.08,North,360,4.0,5.0,49,0.00,,SKC,0.00,VWS V14.01,2013-02-23 17:04:00,
2013-02-23 11:09:00,57.1,38.7,30.08,North,360,3.0,5.0,50,0.00,,SKC,0.00,VWS V14.01,2013-02-23 17:09:00,
2013-02-23 11:14:00,57.5,39.0,30.08,NNW,336,0.0,10.0,50,0.00,,SKC,0.00,VWS V14.01,2013-02-23 17:14:00,
2013-02-23 11:19:00,58.5,39.9,30.07,NNW,346,0.0,10.0,50,0.00,,SKC,0.00,VWS V14.01,2013-02-23 17:19:00,
2013-02-23 11:24:00,59.8,40.1,30.07,NNW,342,3.0,10.0,48,0.00,,SKC,0.00,VWS V14.01,2013-02-23 17:24:00,
2013-02-23 11:29:00,60.6,39.7,30.07,North,349,0.0,10.0,46,0.00,,SKC,0.00,VWS V14.01,2013-02-23 17:29:00,
2013-02-23 11:34:00,61.8,40.3,30.07,NNW,347,3.0,4.0,45,0.00,,SKC,0.00,VWS V14.01,2013-02-23 17:34:00,
2013-02-23 11:39:00,62.7,39.9,30.06,NNW,346,0.0,4.0,43,0.00,,SKC,0.00,VWS V14.01,2013-02-23 17:39:00,
2013-02-23 11:44:00,63.2,40.3,30.06,NNW,327,3.0,5.0,43,0.00,,SKC,0.00,VWS V14.01,2013-02-23 17:44:00,
2013-02-23 11:49:00,63.0,40.2,30.06,West,277,2.0,6.0,43,0.00,,SKC,0.00,VWS V14.01,2013-02-23 17:49:00,
2013-02-23 11:54:00,63.5,40.6,30.06,West,277,0.0,6.0,43,0.00,,SKC,0.00,VWS V14.01,2013-02-23 17:54:00,
2013-02-23 11:59:00,64.6,40.4,30.05,West,277,4.0,6.0,41,0.00,,SKC,0.00,VWS V14.01,2013-02-23 17:59:00,
2013-02-23 12:04:00,65.4,41.1,30.05,West,273,2.0,4.0,41,0.00,,SKC,0.00,VWS V14.01,2013-02-23 18:04:00,
2013-02-23 12:09:00,65.9,40.9,30.05,West,270,2.0,7.0,40,0.00,,SKC,0.00,VWS V14.01,2013-02-23 18:09:00,
2013-02-23 12:14:00,65.9,40.3,30.04,West,271,0.0,7.0,39,0.00,,SKC,0.00,VWS V14.01,2013-02-23 18:14:00,
2013-02-23 12:19:00,66.2,41.2,30.03,West,268,0.0,7.0,40,0.00,,SKC,0.00,VWS V14.01,2013-02-23 18:19:00,
2013-02-23 12:24:00,66.7,41.6,30.03,NW,322,6.0,9.0,40,0.00,,SKC,0.00,VWS V14.01,2013-02-23 18:24:00,
2013-02-23 12:29:00,66.6,40.9,30.02,NW,319,2.0,9.0,39,0.00,,SKC,0.00,VWS V14.01,2013-02-23 18:29:00,
2013-02-23 12:34:00,66.9,41.2,30.02,NW,317,0.0,4.0,39,0.00,,SKC,0.00,VWS V14.01,2013-02-23 18:34:00,
2013-02-23 12:39:00,67.2,41.4,30.02,NW,319,0.0,6.0,39,0.00,,SKC,0.00,VWS V14.01,2013-02-23 18:39:00,
2013-02-23 12:44:00,67.9,42.1,30.01,West,279,5.0,6.0,39,0.00,,SKC,0.00,VWS V14.01,2013-02-23 18:44:00,
2013-02-23 12:49:00,68.1,41.6,30.01,West,279,0.0,6.0,38,0.00,,SKC,0.00,VWS V14.01,2013-02-23 18:49:00,
2013-02-23 12:54:00,69.0,43.0,30.01,SE,129,3.0,6.0,39,0.00,,SKC,0.00,VWS V14.01,2013-02-23 18:54:00,
2013-02-23 12:59:00,69.7,42.3,30.01,SSW,201,1.0,10.0,37,0.00,,SKC,0.00,VWS V14.01,2013-02-23 18:59:00,
2013-02-23 13:04:00,69.4,42.0,30.01,SSE,148,4.0,10.0,37,0.00,,SKC,0.00,VWS V14.01,2013-02-23 19:04:00,
2013-02-23 13:09:00,69.6,42.2,30.01,SSW,209,6.0,10.0,37,0.00,,SKC,0.00,VWS V14.01,2013-02-23 19:09:00,
2013-02-23 13:14:00,69.7,42.3,30.00,SSW,194,3.0,10.0,37,0.00,,SKC,0.00,VWS V14.01,2013-02-23 19:14:00,
2013-02-23 13:19:00,69.7,42.3,30.00,SE,140,4.0,10.0,37,0.00,,SKC,0.00,VWS V14.01,2013-02-23 19:19:00,
2013-02-23 13:24:00,69.4,42.0,29.99,SSE,163,3.0,12.0,37,0.00,,SKC,0.00,VWS V14.01,2013-02-23 19:24:00,
2013-02-23 13:29:00,69.3,42.6,29.99,SSE,153,9.0,12.0,38,0.00,,SKC,0.00,VWS V14.01,2013-02-23 19:29:00,
2013-02-23 13:34:00,69.4,42.0,29.99,SSE,149,4.0,9.0,37,0.00,,SKC,0.00,VWS V14.01,2013-02-23 19:34:00,
2013-02-23 13:39:00,69.4,42.7,29.98,SSE,149,3.0,9.0,38,0.00,,SKC,0.00,VWS V14.01,2013-02-23 19:39:00,
2013-02-23 13:44:00,69.8,42.4,29.98,SSE,149,0.0,9.0,37,0.00,,SKC,0.00,VWS V14.01,2013-02-23 19:44:00,
2013-02-23 13:49:00,70.4,42.2,29.97,SSW,200,2.0,9.0,36,0.00,,SKC,0.00,VWS V14.01,2013-02-23 19:49:00,
2013-02-23 13:54:00,70.9,43.4,29.97,SE,143,4.0,9.0,37,0.00,,SKC,0.00,VWS V14.01,2013-02-23 19:54:00,
2013-02-23 13:59:00,71.3,42.3,29.97,SSE,155,4.0,9.0,35,0.00,,SKC,0.00,VWS V14.01,2013-02-23 19:59:00,
2013-02-23 14:04:00,71.6,42.5,29.97,SSE,163,6.0,7.0,35,0.00,,SKC,0.00,VWS V14.01,2013-02-23 20:04:00,
2013-02-23 14:09:00,71.8,42.0,29.96,SSE,155,3.0,7.0,34,0.00,,SKC,0.00,VWS V14.01,2013-02-23 20:09:00,
2013-02-23 14:14:00,71.9,42.0,29.96,SSE,153,5.0,9.0,34,0.00,,SKC,0.00,VWS V14.01,2013-02-23 20:14:00,
2013-02-23 14:19:00,72.1,41.4,29.95,SSW,202,5.0,10.0,33,0.00,,SKC,0.00,VWS V14.01,2013-02-23 20:19:00,
2013-02-23 14:24:00,72.4,40.9,29.95,SSW,207,3.0,10.0,32,0.00,,SKC,0.00,VWS V14.01,2013-02-23 20:24:00,
2013-02-23 14:29:00,72.8,41.3,29.95,SW,218,4.0,10.0,32,0.00,,SKC,0.00,VWS V14.01,2013-02-23 20:29:00,
2013-02-23 14:34:00,72.9,41.3,29.94,South,177,7.0,7.0,32,0.00,,SKC,0.00,VWS V14.01,2013-02-23 20:34:00,
2013-02-23 14:39:00,72.8,41.3,29.94,SE,145,10.0,10.0,32,0.00,,SKC,0.00,VWS V14.01,2013-02-23 20:39:00,
2013-02-23 14:44:00,72.7,42.0,29.94,SSE,165,3.0,12.0,33,0.00,,SKC,0.00,VWS V14.01,2013-02-23 20:44:00,
2013-02-23 14:49:00,72.6,42.7,29.94,South,175,2.0,12.0,34,0.00,,SKC,0.00,VWS V14.01,2013-02-23 20:49:00,
2013-02-23 14:54:00,72.9,42.1,29.93,SSE,153,2.0,12.0,33,0.00,,SKC,0.00,VWS V14.01,2013-02-23 20:54:00,
2013-02-23 14:59:00,73.2,42.4,29.93,SE,146,4.0,12.0,33,0.00,,SKC,0.00,VWS V14.01,2013-02-23 20:59:00,
2013-02-23 15:04:00,73.3,41.7,29.93,South,190,13.0,13.0,32,0.00,,SKC,0.00,VWS V14.01,2013-02-23 21:04:00,
2013-02-23 15:09:00,73.1,42.3,29.92,SSE,152,0.0,13.0,33,0.00,,SKC,0.00,VWS V14.01,2013-02-23 21:09:00,
2013-02-23 15:14:00,73.2,42.4,29.92,SE,142,5.0,13.0,33,0.00,,SKC,0.00,VWS V14.01,2013-02-23 21:14:00,
2013-02-23 15:19:00,73.1,42.3,29.92,SE,140,0.0,13.0,33,0.00,,SKC,0.00,VWS V14.01,2013-02-23 21:19:00,
2013-02-23 15:24:00,73.0,41.4,29.92,SE,142,4.0,13.0,32,0.00,,SKC,0.00,VWS V14.01,2013-02-23 21:24:00,
2013-02-23 15:29:00,72.8,41.3,29.91,SW,219,4.0,13.0,32,0.00,,SKC,0.00,VWS V14.01,2013-02-23 21:29:00,
2013-02-23 15:34:00,72.9,41.3,29.91,SW,219,1.0,5.0,32,0.00,,SKC,0.00,VWS V14.01,2013-02-23 21:34:00,
2013-02-23 15:39:00,72.9,41.3,29.91,SSE,159,3.0,7.0,32,0.00,,SKC,0.00,VWS V14.01,2013-02-23 21:39:00,
2013-02-23 15:44:00,72.9,42.1,29.91,SSE,164,3.0,7.0,33,0.00,,SKC,0.00,VWS V14.01,2013-02-23 21:44:00,
2013-02-23 15:49:00,73.1,41.5,29.91,SE,145,9.0,9.0,32,0.00,,SKC,0.00,VWS V14.01,2013-02-23 21:49:00,
2013-02-23 15:54:00,73.1,41.5,29.91,South,169,3.0,12.0,32,0.00,,SKC,0.00,VWS V14.01,2013-02-23 21:54:00,
2013-02-23 15:59:00,72.9,41.3,29.91,SSE,157,4.0,12.0,32,0.00,,SKC,0.00,VWS V14.01,2013-02-23 21:59:00,
2013-02-23 16:04:00,72.8,42.0,29.91,SSE,151,6.0,10.0,33,0.00,,SKC,0.00,VWS V14.01,2013-02-23 22:04:00,
2013-02-23 16:09:00,72.5,41.0,29.91,SE,141,11.0,12.0,32,0.00,,SKC,0.00,VWS V14.01,2013-02-23 22:09:00,
2013-02-23 16:14:00,72.2,41.5,29.91,South,178,4.0,12.0,33,0.00,,SKC,0.00,VWS V14.01,2013-02-23 22:14:00,
2013-02-23 16:19:00,72.2,41.5,29.91,South,169,6.0,12.0,33,0.00,,SKC,0.00,VWS V14.01,2013-02-23 22:19:00,
2013-02-23 16:24:00,72.1,41.4,29.91,SE,134,6.0,12.0,33,0.00,,SKC,0.00,VWS V14.01,2013-02-23 22:24:00,
2013-02-23 16:29:00,72.1,41.4,29.90,SE,146,5.0,12.0,33,0.00,,SKC,0.00,VWS V14.01,2013-02-23 22:29:00,
2013-02-23 16:34:00,72.1,40.7,29.90,SSE,148,5.0,9.0,32,0.00,,SKC,0.00,VWS V14.01,2013-02-23 22:34:00,
2013-02-23 16:39:00,72.1,40.7,29.90,SE,142,5.0,11.0,32,0.00,,SKC,0.00,VWS V14.01,2013-02-23 22:39:00,
2013-02-23 16:44:00,72.2,41.5,29.90,SSE,148,6.0,11.0,33,0.00,,SKC,0.00,VWS V14.01,2013-02-23 22:44:00,
2013-02-23 16:49:00,72.4,41.7,29.89,South,173,5.0,11.0,33,0.00,,SKC,0.00,VWS V14.01,2013-02-23 22:49:00,
2013-02-23 16:54:00,72.3,40.8,29.89,South,177,5.0,11.0,32,0.00,,SKC,0.00,VWS V14.01,2013-02-23 22:54:00,
2013-02-23 16:59:00,72.2,41.5,29.90,SSE,152,3.0,11.0,33,0.00,,SKC,0.00,VWS V14.01,2013-02-23 22:59:00,
2013-02-23 17:04:00,72.0,42.1,29.90,South,188,8.0,12.0,34,0.00,,SKC,0.00,VWS V14.01,2013-02-23 23:04:00,
2013-02-23 17:09:00,71.8,42.0,29.89,South,186,5.0,12.0,34,0.00,,SKC,0.00,VWS V14.01,2013-02-23 23:09:00,
2013-02-23 17:14:00,71.6,41.8,29.89,South,184,5.0,12.0,34,0.00,,SKC,0.00,VWS V14.01,2013-02-23 23:14:00,
2013-02-23 17:19:00,71.5,41.7,29.89,South,180,1.0,12.0,34,0.00,,SKC,0.00,VWS V14.01,2013-02-23 23:19:00,
2013-02-23 17:24:00,71.4,41.6,29.90,SSE,165,6.0,12.0,34,0.00,,SKC,0.00,VWS V14.01,2013-02-23 23:24:00,
2013-02-23 17:29:00,71.2,41.4,29.90,South,171,4.0,12.0,34,0.00,,SKC,0.00,VWS V14.01,2013-02-23 23:29:00,
2013-02-23 17:34:00,71.1,41.3,29.90,South,170,3.0,6.0,34,0.00,,SKC,0.00,VWS V14.01,2013-02-23 23:34:00,
2013-02-23 17:39:00,71.0,42.0,29.90,SSE,163,4.0,7.0,35,0.00,,SKC,0.00,VWS V14.01,2013-02-23 23:39:00,
2013-02-23 17:44:00,70.8,41.1,29.90,SSE,152,3.0,9.0,34,0.00,,SKC,0.00,VWS V14.01,2013-02-23 23:44:00,
2013-02-23 17:49:00,70.6,40.9,29.90,South,176,0.0,9.0,34,0.00,,SKC,0.00,VWS V14.01,2013-02-23 23:49:00,
2013-02-23 17:54:00,70.4,41.5,29.90,South,177,3.0,9.0,35,0.00,,SKC,0.00,VWS V14.01,2013-02-23 23:54:00,
2013-02-23 17:59:00,70.2,41.3,29.90,South,170,2.0,9.0,35,0.00,,SKC,0.00,VWS V14.01,2013-02-23 23:59:00,
2013-02-23 18:04:00,70.0,41.1,29.91,SSE,153,6.0,8.0,35,0.00,,SKC,0.00,VWS V14.01,2013-02-24 00:04:00,
2013-02-23 18:09:00,69.8,40.9,29.90,SSE,164,2.0,8.0,35,0.00,,SKC,0.00,VWS V14.01,2013-02-24 00:09:00,
2013-02-23 18:14:00,69.7,40.8,29.90,SSE,163,3.0,8.0,35,0.00,,SKC,0.00,VWS V14.01,2013-02-24 00:14:00,
2013-02-23 18:19:00,69.4,40.6,29.90,SSE,162,0.0,8.0,35,0.00,,SKC,0.00,VWS V14.01,2013-02-24 00:19:00,
2013-02-23 18:24:00,69.2,41.1,29.90,SSE,162,0.0,8.0,36,0.00,,SKC,0.00,VWS V14.01,2013-02-24 00:24:00,
2013-02-23 18:29:00,69.0,41.0,29.90,SSE,162,0.0,8.0,36,0.00,,SKC,0.00,VWS V14.01,2013-02-24 00:29:00,
2013-02-23 18:34:00,68.8,40.8,29.91,SSE,162,0.0,4.0,36,0.00,,SKC,0.00,VWS V14.01,2013-02-24 00:34:00,
2013-02-23 18:39:00,68.5,41.2,29.91,SSE,162,0.0,4.0,37,0.00,,SKC,0.00,VWS V14.01,2013-02-24 00:39:00,
2013-02-23 18:44:00,68.0,40.8,29.91,SSE,162,0.0,4.0,37,0.00,,SKC,0.00,VWS V14.01,2013-02-24 00:44:00,
2013-02-23 18:49:00,67.6,41.1,29.92,SSE,162,0.0,4.0,38,0.00,,SKC,0.00,VWS V14.01,2013-02-24 00:49:00,
2013-02-23 18:54:00,67.2,40.8,29.91,SSE,162,0.0,4.0,38,0.00,,SKC,0.00,VWS V14.01,2013-02-24 00:54:00,
2013-02-23 18:59:00,66.8,41.1,29.91,SSE,162,0.0,4.0,39,0.00,,SKC,0.00,VWS V14.01,2013-02-24 00:59:00,
2013-02-23 19:04:00,66.3,40.6,29.92,SSE,162,0.0,1.0,39,0.00,,SKC,0.00,VWS V14.01,2013-02-24 01:04:00,
2013-02-23 19:09:00,66.1,41.1,29.92,SSE,162,0.0,1.0,40,0.00,,SKC,0.00,VWS V14.01,2013-02-24 01:09:00,
2013-02-23 19:14:00,65.7,40.7,29.92,SSE,162,0.0,1.0,40,0.00,,SKC,0.00,VWS V14.01,2013-02-24 01:14:00,
2013-02-23 19:19:00,65.4,41.1,29.93,SSE,162,0.0,1.0,41,0.00,,SKC,0.00,VWS V14.01,2013-02-24 01:19:00,
2013-02-23 19:24:00,65.0,40.8,29.93,SSE,162,0.0,1.0,41,0.00,,SKC,0.00,VWS V14.01,2013-02-24 01:24:00,
2013-02-23 19:29:00,64.6,41.0,29.93,SSE,162,0.0,1.0,42,0.00,,SKC,0.00,VWS V14.01,2013-02-24 01:29:00,
2013-02-23 19:34:00,64.2,41.3,29.93,SSE,162,0.0,0.0,43,0.00,,SKC,0.00,VWS V14.01,2013-02-24 01:34:00,
2013-02-23 19:39:00,63.7,40.8,29.93,SSE,162,0.0,4.0,43,0.00,,SKC,0.00,VWS V14.01,2013-02-24 01:39:00,
2013-02-23 19:44:00,63.4,41.1,29.93,SSE,162,0.0,4.0,44,0.00,,SKC,0.00,VWS V14.01,2013-02-24 01:44:00,
2013-02-23 19:49:00,63.1,40.9,29.93,SSE,162,0.0,4.0,44,0.00,,SKC,0.00,VWS V14.01,2013-02-24 01:49:00,
2013-02-23 19:54:00,62.8,40.6,29.93,SSE,162,0.0,4.0,44,0.00,,SKC,0.00,VWS V14.01,2013-02-24 01:54:00,
2013-02-23 19:59:00,62.4,40.8,29.94,SSE,161,0.0,4.0,45,0.00,,SKC,0.00,VWS V14.01,2013-02-24 01:59:00,
2013-02-23 20:04:00,62.0,41.0,29.95,SSE,161,0.0,2.0,46,0.00,,SKC,0.00,VWS V14.01,2013-02-24 02:04:00,
2013-02-23 20:09:00,61.6,40.6,29.95,SSE,161,0.0,2.0,46,0.00,,SKC,0.00,VWS V14.01,2013-02-24 02:09:00,
2013-02-23 20:14:00,61.3,40.4,29.95,SSE,161,0.0,2.0,46,0.00,,SKC,0.00,VWS V14.01,2013-02-24 02:14:00,
2013-02-23 20:19:00,61.1,40.7,29.95,SSE,160,0.0,4.0,47,0.00,,SKC,0.00,VWS V14.01,2013-02-24 02:19:00,
2013-02-23 20:24:00,60.8,40.5,29.95,SSE,159,0.0,4.0,47,0.00,,SKC,0.00,VWS V14.01,2013-02-24 02:24:00,
2013-02-23 20:29:00,60.6,40.3,29.95,SSE,159,0.0,4.0,47,0.00,,SKC,0.00,VWS V14.01,2013-02-24 02:29:00,
2013-02-23 20:34:00,60.5,40.2,29.95,SSE,159,0.0,1.0,47,0.00,,SKC,0.00,VWS V14.01,2013-02-24 02:34:00,
2013-02-23 20:39:00,60.2,40.5,29.95,SSE,159,0.0,2.0,48,0.00,,SKC,0.00,VWS V14.01,2013-02-24 02:39:00,
2013-02-23 20:44:00,60.0,40.3,29.95,SSE,159,0.0,2.0,48,0.00,,SKC,0.00,VWS V14.01,2013-02-24 02:44:00,
2013-02-23 20:49:00,59.8,40.1,29.95,SSE,159,0.0,2.0,48,0.00,,SKC,0.00,VWS V14.01,2013-02-24 02:49:00,
2013-02-23 20:54:00,59.6,40.4,29.95,SSE,159,0.0,2.0,49,0.00,,SKC,0.00,VWS V14.01,2013-02-24 02:54:00,
2013-02-23 20:59:00,59.4,40.2,29.96,SSE,159,0.0,2.0,49,0.00,,SKC,0.00,VWS V14.01,2013-02-24 02:59:00,
2013-02-23 21:04:00,59.3,40.2,29.96,SSE,159,0.0,1.0,49,0.00,,SKC,0.00,VWS V14.01,2013-02-24 03:04:00,
2013-02-23 21:09:00,59.2,40.1,29.96,SSE,159,0.0,3.0,49,0.00,,SKC,0.00,VWS V14.01,2013-02-24 03:09:00,
2013-02-23 21:14:00,59.1,40.0,29.96,SSE,159,2.0,3.0,49,0.00,,SKC,0.00,VWS V14.01,2013-02-24 03:14:00,
2013-02-23 21:19:00,58.9,39.8,29.95,SSE,159,0.0,4.0,49,0.00,,SKC,0.00,VWS V14.01,2013-02-24 03:19:00,
2013-02-23 21:24:00,58.9,40.3,29.96,SSE,159,0.0,4.0,50,0.00,,SKC,0.00,VWS V14.01,2013-02-24 03:24:00,
2013-02-23 21:29:00,58.8,40.2,29.96,SSE,159,0.0,4.0,50,0.00,,SKC,0.00,VWS V14.01,2013-02-24 03:29:00,
2013-02-23 21:34:00,58.7,40.1,29.97,SSE,159,0.0,0.0,50,0.00,,SKC,0.00,VWS V14.01,2013-02-24 03:34:00,
2013-02-23 21:39:00,58.6,40.0,29.97,SSE,159,0.0,2.0,50,0.00,,SKC,0.00,VWS V14.01,2013-02-24 03:39:00,
2013-02-23 21:44:00,58.5,40.5,29.97,SSE,159,0.0,3.0,51,0.00,,SKC,0.00,VWS V14.01,2013-02-24 03:44:00,
2013-02-23 21:49:00,58.4,39.8,29.97,SSE,159,0.0,3.0,50,0.00,,SKC,0.00,VWS V14.01,2013-02-24 03:49:00,
2013-02-23 21:54:00,58.3,39.8,29.97,SSE,159,0.0,3.0,50,0.00,,SKC,0.00,VWS V14.01,2013-02-24 03:54:00,
2013-02-23 21:59:00,58.1,39.6,29.97,SSE,159,0.0,3.0,50,0.00,,SKC,0.00,VWS V14.01,2013-02-24 03:59:00,
2013-02-23 22:04:00,58.0,39.5,29.98,SSE,159,0.0,1.0,50,0.00,,SKC,0.00,VWS V14.01,2013-02-24 04:04:00,
2013-02-23 22:09:00,57.8,39.3,29.98,SSE,159,0.0,4.0,50,0.00,,SKC,0.00,VWS V14.01,2013-02-24 04:09:00,
2013-02-23 22:14:00,57.7,39.7,29.98,SSE,159,0.0,4.0,51,0.00,,SKC,0.00,VWS V14.01,2013-02-24 04:14:00,
2013-02-23 22:19:00,57.4,39.4,29.98,SSE,159,0.0,4.0,51,0.00,,SKC,0.00,VWS V14.01,2013-02-24 04:19:00,
2013-02-23 22:24:00,57.2,39.2,29.98,SSE,159,2.0,4.0,51,0.00,,SKC,0.00,VWS V14.01,2013-02-24 04:24:00,
2013-02-23 22:29:00,57.1,39.7,29.98,SSE,159,0.0,4.0,52,0.00,,SKC,0.00,VWS V14.01,2013-02-24 04:29:00,
2013-02-23 22:34:00,56.9,39.5,29.98,SSE,158,0.0,3.0,52,0.00,,SKC,0.00,VWS V14.01,2013-02-24 04:34:00,
2013-02-23 22:39:00,56.8,39.4,29.98,SSE,157,2.0,4.0,52,0.00,,SKC,0.00,VWS V14.01,2013-02-24 04:39:00,
2013-02-23 22:44:00,56.7,39.8,29.98,SSE,157,0.0,4.0,53,0.00,,SKC,0.00,VWS V14.01,2013-02-24 04:44:00,
2013-02-23 22:49:00,56.4,39.5,29.98,SSE,157,0.0,4.0,53,0.00,,SKC,0.00,VWS V14.01,2013-02-24 04:49:00,
2013-02-23 22:54:00,56.1,39.2,29.97,SSE,157,2.0,4.0,53,0.00,,SKC,0.00,VWS V14.01,2013-02-24 04:54:00,
2013-02-23 22:59:00,55.8,39.4,29.97,SSE,155,0.0,5.0,54,0.00,,SKC,0.00,VWS V14.01,2013-02-24 04:59:00,
2013-02-23 23:00:00,55.7,39.3,29.97,SSE,155,1.0,5.0,54,0.00,,SKC,0.00,VWS V14.01,2013-02-24 05:00:00,
2013-02-23 23:05:00,55.4,39.5,29.97,SSE,155,1.0,4.0,55,0.00,,SKC,0.00,VWS V14.01,2013-02-24 05:05:00,
2013-02-23 23:10:00,55.2,39.3,29.96,SSE,155,0.0,5.0,55,0.00,,SKC,0.00,VWS V14.01,2013-02-24 05:10:00,
2013-02-23 23:15:00,55.0,39.6,29.96,SSE,154,1.0,5.0,56,0.00,,SKC,0.00,VWS V14.01,2013-02-24 05:15:00,
2013-02-23 23:20:00,54.9,39.5,29.96,SSE,154,1.0,5.0,56,0.00,,SKC,0.00,VWS V14.01,2013-02-24 05:20:00,
2013-02-23 23:25:00,54.7,39.8,29.96,SSE,153,3.0,5.0,57,0.00,,SKC,0.00,VWS V14.01,2013-02-24 05:25:00,
2013-02-23 23:30:00,54.6,39.7,29.96,SSE,153,0.0,5.0,57,0.00,,SKC,0.00,VWS V14.01,2013-02-24 05:30:00,
2013-02-23 23:35:00,54.4,39.5,29.95,SSE,152,0.0,4.0,57,0.00,,SKC,0.00,VWS V14.01,2013-02-24 05:35:00,
2013-02-23 23:40:00,54.2,39.8,29.95,SSE,148,2.0,6.0,58,0.00,,SKC,0.00,VWS V14.01,2013-02-24 05:40:00,
2013-02-23 23:45:00,54.1,39.7,29.95,SSE,147,1.0,6.0,58,0.00,,SKC,0.00,VWS V14.01,2013-02-24 05:45:00,
2013-02-23 23:50:00,53.9,39.9,29.95,SE,144,3.0,6.0,59,0.00,,SKC,0.00,VWS V14.01,2013-02-24 05:50:00,
2013-02-23 23:55:00,53.7,39.7,29.94,SE,143,0.0,6.0,59,0.00,,SKC,0.00,VWS V14.01,2013-02-24 05:55:00,